Time,TemperatureF,DewpointF,PressureIn,WindDirection,WindDirectionDegrees,WindSpeedMPH,WindSpeedGustMPH,Humidity,HourlyPrecipIn,Conditions,Clouds,dailyrainin,SolarRadiationWatts/m^2,SoftwareType,DateUTC
2013-03-27 00:02:00,26.0,20.0,-100.00,West,277,2.0,3.0,78,0.00,,,0.00,0.000000,,2013-03-27 05:02:00,
2013-03-27 00:10:00,27.0,21.0,-100.00,WNW,297,2.0,4.0,79,0.00,,,0.00,0.000000,,2013-03-27 05:10:00,
2013-03-27 00:42:00,27.0,21.0,-100.00,WNW,297,2.0,4.0,79,0.00,,,0.00,0.000000,,2013-03-27 05:42:00,
2013-03-27 00:52:00,27.0,21.0,-100.00,WNW,297,2.0,4.0,79,0.00,,,0.00,0.000000,,2013-03-27 05:52:00,
2013-03-27 01:02:00,27.0,21.0,-100.00,WNW,297,2.0,4.0,79,0.00,,,0.00,0.000000,,2013-03-27 06:02:00,
2013-03-27 01:10:00,28.0,19.0,-100.00,WNW,296,2.0,4.0,68,0.00,,,0.00,0.000000,,2013-03-27 06:10:00,
2013-03-27 01:32:00,28.0,19.0,-100.00,WNW,296,2.0,4.0,68,0.00,,,0.00,0.000000,,2013-03-27 06:32:00,
2013-03-27 01:42:00,28.0,19.0,-100.00,WNW,296,2.0,4.0,68,0.00,,,0.00,0.000000,,2013-03-27 06:42:00,
2013-03-27 01:53:00,28.0,19.0,-100.00,WNW,296,2.0,4.0,68,0.00,,,0.00,0.000000,,2013-03-27 06:53:00,
2013-03-27 02:02:00,28.0,19.0,-100.00,WNW,296,2.0,4.0,68,0.00,,,0.00,0.000000,,2013-03-27 07:02:00,
2013-03-27 02:10:00,28.0,19.0,-100.00,WNW,301,2.0,5.0,69,0.00,,,0.00,0.000000,,2013-03-27 07:10:00,
2013-03-27 02:32:00,28.0,19.0,-100.00,WNW,301,2.0,5.0,69,0.00,,,0.00,0.000000,,2013-03-27 07:32:00,
2013-03-27 02:43:00,28.0,19.0,-100.00,WNW,301,2.0,5.0,69,0.00,,,0.00,0.000000,,2013-03-27 07:43:00,
2013-03-27 02:53:00,28.0,19.0,-100.00,WNW,301,2.0,5.0,69,0.00,,,0.00,0.000000,,2013-03-27 07:53:00,
2013-03-27 03:02:00,28.0,19.0,-100.00,WNW,301,2.0,5.0,69,0.00,,,0.00,0.000000,,2013-03-27 08:02:00,
2013-03-27 03:10:00,27.0,19.0,-100.00,NW,325,1.0,4.0,72,0.00,,,0.00,0.000000,,2013-03-27 08:10:00,
2013-03-27 03:32:00,27.0,19.0,-100.00,NW,325,1.0,4.0,72,0.00,,,0.00,0.000000,,2013-03-27 08:32:00,
2013-03-27 03:43:00,27.0,19.0,-100.00,NW,325,1.0,4.0,72,0.00,,,0.00,0.000000,,2013-03-27 08:43:00,
2013-03-27 03:52:00,27.0,19.0,-100.00,NW,325,1.0,4.0,72,0.00,,,0.00,0.000000,,2013-03-27 08:52:00,
2013-03-27 04:02:00,27.0,19.0,-100.00,NW,325,1.0,4.0,72,0.00,,,0.00,0.000000,,2013-03-27 09:02:00,
2013-03-27 04:10:00,28.0,18.0,-100.00,NW,310,2.0,5.0,67,0.00,,,0.00,0.000000,,2013-03-27 09:10:00,
2013-03-27 04:42:00,28.0,18.0,-100.00,NW,310,2.0,5.0,67,0.00,,,0.00,0.000000,,2013-03-27 09:42:00,
2013-03-27 04:52:00,28.0,18.0,-100.00,NW,310,2.0,5.0,67,0.00,,,0.00,0.000000,,2013-03-27 09:52:00,
2013-03-27 05:02:00,28.0,18.0,-100.00,NW,310,2.0,5.0,67,0.00,,,0.00,0.000000,,2013-03-27 10:02:00,
2013-03-27 05:10:00,28.0,18.0,-100.00,WNW,299,2.0,5.0,66,0.00,,,0.00,0.000000,,2013-03-27 10:10:00,
2013-03-27 05:32:00,28.0,18.0,-100.00,WNW,299,2.0,5.0,66,0.00,,,0.00,0.000000,,2013-03-27 10:32:00,
2013-03-27 05:42:00,28.0,18.0,-100.00,WNW,299,2.0,5.0,66,0.00,,,0.00,0.000000,,2013-03-27 10:42:00,
2013-03-27 05:53:00,28.0,18.0,-100.00,WNW,299,2.0,5.0,66,0.00,,,0.00,0.000000,,2013-03-27 10:53:00,
2013-03-27 06:02:00,28.0,18.0,-100.00,WNW,299,2.0,5.0,66,0.00,,,0.00,0.000000,,2013-03-27 11:02:00,
2013-03-27 06:10:00,27.0,18.0,-100.00,NW,315,2.0,4.0,69,0.00,,,0.00,0.000000,,2013-03-27 11:10:00,
2013-03-27 06:32:00,27.0,18.0,-100.00,NW,315,2.0,4.0,69,0.00,,,0.00,0.000000,,2013-03-27 11:32:00,
2013-03-27 06:42:00,27.0,18.0,-100.00,NW,315,2.0,4.0,69,0.00,,,0.00,0.000000,,2013-03-27 11:42:00,
2013-03-27 06:53:00,27.0,18.0,-100.00,NW,315,2.0,4.0,69,0.00,,,0.00,0.000000,,2013-03-27 11:53:00,
2013-03-27 07:02:00,27.0,18.0,-100.00,NW,315,2.0,4.0,69,0.00,,,0.00,0.000000,,2013-03-27 12:02:00,
2013-03-27 07:10:00,28.0,18.0,-100.00,WNW,287,2.0,5.0,67,0.00,,,0.00,2.000000,,2013-03-27 12:10:00,
2013-03-27 07:32:00,28.0,18.0,-100.00,WNW,287,2.0,5.0,67,0.00,,,0.00,2.000000,,2013-03-27 12:32:00,
2013-03-27 07:43:00,28.0,18.0,-100.00,WNW,287,2.0,5.0,67,0.00,,,0.00,2.000000,,2013-03-27 12:43:00,
2013-03-27 07:52:00,28.0,18.0,-100.00,WNW,287,2.0,5.0,67,0.00,,,0.00,2.000000,,2013-03-27 12:52:00,
2013-03-27 08:02:00,28.0,18.0,-100.00,WNW,287,2.0,5.0,67,0.00,,,0.00,2.000000,,2013-03-27 13:02:00,
2013-03-27 08:10:00,30.0,18.0,-100.00,NW,311,2.0,4.0,60,0.00,,,0.00,40.000000,,2013-03-27 13:10:00,
2013-03-27 08:42:00,30.0,18.0,-100.00,NW,311,2.0,4.0,60,0.00,,,0.00,40.000000,,2013-03-27 13:42:00,
2013-03-27 08:53:00,30.0,18.0,-100.00,NW,311,2.0,4.0,60,0.00,,,0.00,40.000000,,2013-03-27 13:53:00,
2013-03-27 09:02:00,30.0,18.0,-100.00,NW,311,2.0,4.0,60,0.00,,,0.00,40.000000,,2013-03-27 14:02:00,
2013-03-27 09:10:00,33.0,16.0,-100.00,NNW,327,6.0,9.0,49,0.00,,,-99.99,123.000000,,2013-03-27 14:10:00,
2013-03-27 09:42:00,33.0,16.0,-100.00,NNW,327,6.0,9.0,49,0.00,,,-99.99,123.000000,,2013-03-27 14:42:00,
2013-03-27 09:52:00,33.0,16.0,-100.00,NNW,327,6.0,9.0,49,0.00,,,-99.99,123.000000,,2013-03-27 14:52:00,
2013-03-27 10:02:00,33.0,16.0,-100.00,NNW,327,6.0,9.0,49,0.00,,,-99.99,123.000000,,2013-03-27 15:02:00,
2013-03-27 10:10:00,35.0,15.0,-100.00,NNW,331,7.0,13.0,44,0.00,,,0.00,211.000000,,2013-03-27 15:10:00,
2013-03-27 10:33:00,35.0,15.0,-100.00,NNW,331,7.0,13.0,44,0.00,,,0.00,211.000000,,2013-03-27 15:33:00,
2013-03-27 10:43:00,35.0,15.0,-100.00,NNW,331,7.0,13.0,44,0.00,,,0.00,211.000000,,2013-03-27 15:43:00,
2013-03-27 10:52:00,35.0,15.0,-100.00,NNW,331,7.0,13.0,44,0.00,,,0.00,211.000000,,2013-03-27 15:52:00,
2013-03-27 11:03:00,35.0,15.0,-100.00,NNW,331,7.0,13.0,44,0.00,,,0.00,211.000000,,2013-03-27 16:03:00,
2013-03-27 13:10:00,40.0,15.0,-100.00,North,0,8.0,14.0,36,-99.99,,,-99.99,507.000000,,2013-03-27 18:10:00,
2013-03-27 13:33:00,40.0,15.0,-100.00,North,0,8.0,14.0,36,-99.99,,,-99.99,507.000000,,2013-03-27 18:33:00,
2013-03-27 13:42:00,40.0,15.0,-100.00,North,0,8.0,14.0,36,-99.99,,,-99.99,507.000000,,2013-03-27 18:42:00,
2013-03-27 13:53:00,40.0,15.0,-100.00,North,0,8.0,14.0,36,-99.99,,,-99.99,507.000000,,2013-03-27 18:53:00,
2013-03-27 14:02:00,40.0,15.0,-100.00,North,0,8.0,14.0,36,-99.99,,,-99.99,507.000000,,2013-03-27 19:02:00,
2013-03-27 14:10:00,40.0,16.0,-100.00,NNW,342,7.0,16.0,38,0.00,,,0.00,521.000000,,2013-03-27 19:10:00,
2013-03-27 14:42:00,40.0,16.0,-100.00,NNW,342,7.0,16.0,38,0.00,,,0.00,521.000000,,2013-03-27 19:42:00,
2013-03-27 14:52:00,40.0,16.0,-100.00,NNW,342,7.0,16.0,38,0.00,,,0.00,521.000000,,2013-03-27 19:52:00,
2013-03-27 15:02:00,40.0,16.0,-100.00,NNW,342,7.0,16.0,38,0.00,,,0.00,521.000000,,2013-03-27 20:02:00,
2013-03-27 15:10:00,44.0,16.0,-100.00,NW,320,6.0,14.0,32,0.00,,,0.00,661.000000,,2013-03-27 20:10:00,
2013-03-27 15:43:00,44.0,16.0,-100.00,NW,320,6.0,14.0,32,0.00,,,0.00,661.000000,,2013-03-27 20:43:00,
2013-03-27 15:52:00,44.0,16.0,-100.00,NW,320,6.0,14.0,32,0.00,,,0.00,661.000000,,2013-03-27 20:52:00,
2013-03-27 16:02:00,44.0,16.0,-100.00,NW,320,6.0,14.0,32,0.00,,,0.00,661.000000,,2013-03-27 21:02:00,
2013-03-27 16:10:00,43.0,17.0,-100.00,North,1,7.0,18.0,35,0.00,,,0.00,504.000000,,2013-03-27 21:10:00,
2013-03-27 16:32:00,43.0,17.0,-100.00,North,1,7.0,18.0,35,0.00,,,0.00,504.000000,,2013-03-27 21:32:00,
2013-03-27 16:43:00,43.0,17.0,-100.00,North,1,7.0,18.0,35,0.00,,,0.00,504.000000,,2013-03-27 21:43:00,
2013-03-27 16:52:00,43.0,17.0,-100.00,North,1,7.0,18.0,35,0.00,,,0.00,504.000000,,2013-03-27 21:52:00,
2013-03-27 17:03:00,43.0,17.0,-100.00,North,1,7.0,18.0,35,0.00,,,0.00,504.000000,,2013-03-27 22:03:00,
2013-03-27 17:10:00,41.0,13.0,-100.00,NNW,327,9.0,14.0,32,0.00,,,0.00,434.000000,,2013-03-27 22:10:00,
2013-03-27 17:42:00,41.0,13.0,-100.00,NNW,327,9.0,14.0,32,0.00,,,0.00,434.000000,,2013-03-27 22:42:00,
2013-03-27 17:53:00,41.0,13.0,-100.00,NNW,327,9.0,14.0,32,0.00,,,0.00,434.000000,,2013-03-27 22:53:00,
2013-03-27 18:02:00,41.0,13.0,-100.00,NNW,327,9.0,14.0,32,0.00,,,0.00,434.000000,,2013-03-27 23:02:00,
2013-03-27 18:10:00,39.0,12.0,-100.00,NNW,342,8.0,16.0,32,0.00,,,0.00,233.000000,,2013-03-27 23:10:00,
2013-03-27 18:43:00,39.0,12.0,-100.00,NNW,342,8.0,16.0,32,0.00,,,0.00,233.000000,,2013-03-27 23:43:00,
2013-03-27 18:52:00,39.0,12.0,-100.00,NNW,342,8.0,16.0,32,0.00,,,0.00,233.000000,,2013-03-27 23:52:00,
2013-03-27 19:02:00,39.0,12.0,-100.00,NNW,342,8.0,16.0,32,0.00,,,0.00,233.000000,,2013-03-28 00:02:00,